Location: Gerlach
(40.6516°N, 119.3568°W)
Time: 21:30:02
(UTC-08:00)

Vanguard 1 Rocket - All Passes

Search period start: 05 February 2023 00:00
Search period end: 15 February 2023 00:00
Orbit: 651 x 4224 km, 34.3° (Epoch: 05 February)

Date Brightness Start Highest point End Pass type
(mag) Time Alt. Az. Time Alt. Az. Time Alt. Az.
05 Feb - 09:28:39 10° S 09:33:49 20° SE 09:41:21 10° E daylight
05 Feb - 11:49:20 10° SW 11:58:13 56° SSE 12:15:37 10° E daylight
05 Feb - 14:13:28 10° W 14:26:19 69° S 14:49:53 10° ESE daylight
05 Feb - 16:39:37 10° W 16:56:45 53° SSW 17:21:23 10° SE daylight
05 Feb - 19:10:01 10° W 19:26:51 26° SW 19:45:30 10° S visible
06 Feb - 10:39:26 10° SW 10:46:38 41° SSE 10:59:50 10° E daylight
06 Feb - 13:02:30 10° WSW 13:13:03 68° S 13:33:48 10° E daylight
06 Feb - 15:27:38 10° W 15:42:30 61° SSW 16:07:04 10° SE daylight
06 Feb - 17:55:26 10° W 18:12:55 37° SW 18:34:53 10° SSE visible
06 Feb - 20:37:07 10° WSW 20:41:54 11° SW 20:46:45 10° SW visible
07 Feb - 09:30:21 10° S 09:35:49 24° SE 09:44:19 10° E daylight
07 Feb - 11:51:57 10° WSW 12:00:35 60° SSE 12:17:45 10° E daylight
07 Feb - 14:16:13 10° W 14:28:41 66° S 14:51:43 10° ESE daylight
07 Feb - 16:42:27 10° W 16:58:46 47° SSW 17:22:23 10° SE daylight
07 Feb - 19:14:15 10° W 19:28:31 20° SW 19:44:24 10° S visible
08 Feb - 08:24:06 10° SE 08:25:30 11° SE 08:27:01 10° ESE daylight
08 Feb - 10:41:52 10° SW 10:48:55 47° SSE 11:02:08 10° E daylight
08 Feb - 13:05:15 10° W 13:15:31 68° S 13:35:47 10° ESE daylight
08 Feb - 15:30:24 10° W 15:44:42 55° SSW 16:08:26 10° SE daylight
08 Feb - 17:58:45 10° W 18:14:45 30° SW 18:34:55 10° SSE visible
09 Feb - 09:32:24 10° SSW 09:37:57 30° SE 09:47:02 10° E daylight
09 Feb - 11:54:39 10° WSW 12:03:03 63° S 12:19:52 10° E daylight
09 Feb - 14:18:59 10° W 14:31:04 62° SSW 14:53:23 10° ESE daylight
09 Feb - 16:45:25 10° W 17:00:48 40° SSW 17:23:02 10° SSE daylight
09 Feb - 19:20:00 10° WSW 19:30:18 15° SW 19:41:35 10° SSW visible
10 Feb - 08:24:15 10° SSE 08:27:31 15° SE 08:31:41 10° ESE daylight
10 Feb - 10:44:26 10° SW 10:51:18 52° SSE 11:04:25 10° E daylight
10 Feb - 13:08:02 10° W 13:18:00 65° S 13:37:42 10° ESE daylight
10 Feb - 15:33:15 10° W 15:46:56 49° SSW 16:09:32 10° SE daylight
10 Feb - 18:02:34 10° W 18:16:39 24° SW 18:34:13 10° S visible
11 Feb - 09:34:41 10° SW 09:40:13 35° SSE 09:49:36 10° E daylight
11 Feb - 11:57:25 10° WSW 12:05:35 64° S 12:21:57 10° E daylight
11 Feb - 14:21:49 10° W 14:33:27 56° SSW 14:54:53 10° SE daylight
11 Feb - 16:48:38 10° W 17:02:53 33° SSW 17:23:13 10° SSE daylight
12 Feb - 08:25:46 10° S 08:29:40 19° SE 08:35:03 10° E daylight
12 Feb - 10:47:06 10° WSW 10:53:48 56° SSE 11:06:41 10° E daylight
12 Feb - 13:10:50 10° W 13:20:31 61° S 13:39:31 10° ESE daylight
12 Feb - 15:36:14 10° W 15:49:12 42° SSW 16:10:19 10° SE daylight
12 Feb - 18:07:19 10° WSW 18:18:41 18° SW 18:32:22 10° S visible
13 Feb - 09:37:09 10° SW 09:42:37 41° SSE 09:52:05 10° E daylight
13 Feb - 12:00:12 10° WSW 12:08:09 63° S 12:24:01 10° ESE daylight
13 Feb - 14:24:41 10° W 14:35:52 50° SSW 14:56:08 10° SE daylight
13 Feb - 16:52:14 10° W 17:05:03 26° SW 17:22:49 10° S daylight
14 Feb - 08:27:45 10° SSW 08:31:57 24° SE 08:38:01 10° E daylight
14 Feb - 10:49:51 10° WSW 10:56:23 58° S 11:08:55 10° E daylight
14 Feb - 13:13:41 10° W 13:23:02 56° SSW 13:41:11 10° ESE daylight
14 Feb - 15:39:24 10° W 15:51:31 34° SSW 16:10:42 10° SSE daylight
14 Feb - 18:14:36 10° WSW 18:20:50 12° SW 18:27:46 10° SSW visible
